STARLINK-34602, 65333

Orbit data source: Space-Track

STARLINK-34602, 65333 is a payload satellite owned by SpaceX/Seattle (US) in LEO that was launched on Wed, 27 Aug 2025 UTC via an FALCON 9 launch vehicle from the Air Force Eastern Test Range (AFETR). Payload-class satellites include a variety of spacecraft equipped with specific instruments for various scientific and technological missions. These include communications satellites like Starlink; space stations such as the ISS; scientific satellites like the Hubble; Earth observation satellites from companies like Planet Labs, Umbra, and HawkEye 360; GPS; miniature CubeSats for education and research; and military/defense satellites.

Loading next visibility...
Identifier
65333, 2025-189L
Orbit
LEO
Country
Flag of USUS
Related business
Manufacturer
SpaceX/Seattle
Mission
Operational Commercial Communications
Bus & Motor
STARLINK V2MO, Unknown motor
Mass
575 kg wet, ~530 kg dry
Launch date (UTC)
2025-08-27 (10 months ago)
Launch vehicle
FALCON 9
Launch site
Air Force Eastern Test Range (AFETR)
Object type
Payload
Rocket body
Debris
Shape & HBR
Box + 2 Pan, 17.7 m
Radar Cross Section
36.964 m², Large (>1 m²)

Expand to show TLE details & history
Last TLE update: 21 hours ago

TLE from 21 hours ago
0 STARLINK-34602
1 65333U 25189L   26170.96866271  .00018016  00000-0  59059-3 0  9993
2 65333  53.1594  91.1336 0001567  91.5782 268.5399 15.31717627 46779
Epoch: 2026-06-19T23:14Z
TLE epoch observation values (Epoch: 2026-06-19T23:14:52.458Z)
Latitude
Longitude
-165.775°
Altitude
471.615 km
Speed
7.631 km/s
True Right ascension
06h 04m 32s
True Declination
0° 00' 00"
Sunlit
Object was in daylight at epoch
Visualization orbit readout
Latitude
Unknown
Longitude
Unknown
Altitude
Unknown
Speed
Unknown
Apparent Right ascension
Unknown
Apparent Declination
Unknown
Sunlit
N/A
Visualization observer readout
Local Sidereal Time
07:15:00
Azimuth
Unknown
Elevation
Unknown
Doppler factor
Unknown
Orbital elements
Apogee altitude
472.017 km
Perigee altitude
469.871 km
Semi-major axis
6,849.081 km
Eccentricity
0.00016
Inclination
53.1594°
RAAN
91.1336°
Arg. of periapsis
91.5782°
True anomaly
268.52195°
Mean anomaly
268.5399°
Eccentric anomaly
268.53092°
Mean motion
3.82908 °/min
Orbital period
94.02 mins
BSTAR
0.00059059
Loading maneuver chart data...
Computing Atmospheric mass density...
Loading historical data...
Loading historical data...
Loading historical data...
Loading historical data...
Loading historical data...
Loading historical data...
Loading historical data...

Documentation

Showing up to 5 results
|